Location: Colorado Springs
(38.8340°N, 104.8210°W)
Time: 04:44:44
(UTC-06:00)

Tiangong 1 - Pass Details

Date: 13 October 2017
Orbit: 293 x 320 km, 42.8° (Epoch: 19 October)

Event Time Altitude Azimuth Distance (km) Brightness Sun altitude
Rises 19:23:20 0° 291° (WNW) 2,043 6.2 -12.5°
Reaches altitude 10° 19:25:21 10° 296° (WNW) 1,207 4.7 -12.9°
Maximum altitude 19:28:01 54° 15° (NNE) 383 0.9 -13.4°
Enters shadow 19:28:55 33° 76° (ENE) 544 1.3 -13.6°
